SBIRS GEO-1 (USA 230)

Last updated on Thu Oct 30 2025 00:02:48 GMT+0000 (Coordinated Universal Time)

1 37481U 11019A 25302.05316251 .00000112 00000+0 00000+0 0 9992 2 37481 4.0291 52.8264 0002038 173.5346 242.2373 1.00272179 53088
UTC large
Height (km)
Speed (km/s)
/
Latitude / Longitude
Inclination (degrees)
Orbital Period (minutes)
Azimuth
Elevation
Range (km)
Doppler Factor

Next 0 passes for location: London (51.5072 / 0.1276)

Sorry there are no passes over London.